Location: Pettit
(39.0209°N, 79.7181°W)
Time: 19:05:29
(UTC+00:00)

ACS3 Solar Sail - Pass Details

Date: 24 April 2026
Orbit: 894 x 947 km, 97.2° (Epoch: 12 May)

Event Time Altitude Azimuth Distance (km) Brightness Sun altitude
Rises 06:44:52 0° 7° (N) 3,557 5.7 -34.2°
Reaches altitude 10° 06:47:19 10° 4° (N) 2,618 4.8 -34.0°
Enters shadow 06:51:31 46° 341° (NNW) 1,222 2.4 -33.6°
